Preview of NWS' New Version of Forecast
This preview is not operational and should not be used for support decisions.
Latest weather observations around

Huntingburg (KHNB)

Using English Units (Switch to International System of Units)
Date/ Time (EDT) Wind (mph) Vis. (mi) Weather Sky Cond. Temp (°F) Rel. Humidity Wind Chill (°F) Heat Index (°F) Pressure Precip. (in)
Air Dwpt 6 hour Altimeter (inHg) Sea level (inHg) 1 hr 3 hr 6 hr
Max Min
Sep 15 17:56 Calm 10 Clear CLR 87 65     48%   89 30.06 30.05      
Sep 15 16:56 Calm 10 Clear CLR 87 63     45%   88 30.06 30.05      
Sep 15 15:56 5 10 Clear CLR 89 64     44%   90 30.09 30.07      
Sep 15 14:56 W 5 10 Clear CLR 85 64     50%   86 30.12 30.11      
Sep 15 13:56 W 7 10 Clear CLR 86 62     45%   87 30.15 30.14      
Sep 15 12:56 SW 5 10 Clear CLR 87 60     40%   87 30.18 30.16      
Sep 15 11:56 SE 6 10 Clear CLR 83 59     44%   83 30.19 30.18      
Sep 15 10:56 S 7 10 Clear CLR 78 58     50%   78 30.2 30.19      
Sep 15 09:56 SE 6 10 Clear CLR 72 60     66%   72 30.19 30.18      
Sep 15 08:56 SSE 3 10 Clear CLR 64 58     81%     30.18 30.17      
Sep 15 07:56 E 3 10 Clear CLR 56 55     97%     30.19 30.18      
Sep 15 06:56 Calm 8 Clear CLR 57 55     93%     30.19 30.17      
Sep 15 05:56 S 5 10 Clear CLR 61 55     81%     30.16 30.15      
Sep 15 04:56 Calm 10 Clear CLR 59 56     90%     30.17 30.16      
Sep 15 03:56 Calm 10 Clear CLR 58 57     97%     30.17 30.16      
Sep 15 02:56 Calm 10 Clear CLR 59 58     96%     30.2 30.19      
Sep 15 01:56 Calm 10 Clear CLR 60 59     96%     30.2 30.19      
Sep 15 00:56 NNE 3 10 Clear CLR 60 59     96%     30.21 30.19      
Sep 14 23:56 SE 3 10 Clear CLR 61 59     93%     30.21 30.2      
Sep 14 22:56 Calm 10 Clear CLR 65 58     78%     30.21 30.2      
Sep 14 21:56 ESE 3 10 Clear CLR 68 59     73%     30.21 30.19      
Sep 14 20:56 Calm 10 Clear CLR 70 59     68%     30.2 30.19      
Sep 14 19:56 Calm 10 Clear CLR 75 59     57%   75 30.19 30.19      
Sep 14 18:56 SE 7 10 Clear CLR 81 57     44%   81 30.2 30.19      
Sep 14 17:56 SE 6 10 Clear CLR 83 58     43%   83 30.21 30.2      
Sep 14 16:56 NNE 7 10 Clear CLR 82 56     41%   82 30.22 30.21      
Sep 14 15:56 ENE 6 10 Clear CLR 81 56     42%   81 30.24 30.22      
Sep 14 14:56 Calm 10 Clear CLR 80 55     42%   80 30.26 30.24      
Sep 14 13:56 Calm 10 Clear CLR 78 55     45%   78 30.28 30.27      
Sep 14 12:56 ESE 8 10 Clear CLR 77 58     52%   77 30.29 30.28      
Sep 14 11:56 ESE 5 10 Clear CLR 76 60     58%   76 30.3 30.29      
Sep 14 10:56 ENE 6 10 Clear CLR 71 61     70%   71 30.31 30.3      
Sep 14 09:56 NE 7 10 Clear CLR 69 60     73%     30.31 30.3      
Sep 14 08:56 NNE 3 10 Clear CLR 66 61     84%     30.29 30.29      
Sep 14 07:56   10 Clear CLR 64 60     87%     30.28 30.27      
Sep 14 06:56 NNW 5 10 Clear CLR 65 60     84%     30.26 30.25      
Sep 14 05:56 N 3 10 Clear CLR 65 61     87%     30.24 30.22      
Sep 14 04:56 Calm 10 Mostly Clear FEW120 66 61     84%     30.23 30.21      
Sep 14 03:56 N 5 10 Partly Cloudy SCT120 67 60     79%     30.22 30.21      
Sep 14 02:56 N 3 10 Clear CLR 68 59     73%     30.21 30.2      
Sep 14 01:56 NNW 6 10 Clear CLR 68 59     73%     30.21 30.19      
Sep 14 00:56 NW 5 10 Clear CLR 70 60     71%     30.19 30.17      
Sep 13 23:56 NW 5 10 Clear CLR 71 60     68%   71 30.18 30.16      
Sep 13 22:56 NW 5 10 Clear CLR 74 60     62%   74 30.17 30.16      
Sep 13 21:56 NW 5 10 Clear   76 61     60%   76 30.16 30.14      
Sep 13 20:56 W 5 10 Clear CLR 76 62     62%   76 30.14 30.12      
Sep 13 19:56 NW 7 10 Clear CLR 80 65     60%   82 30.11 30.1      
Sep 13 18:56 WNW 13 10 Clear CLR 87 72     61%   94 30.1 30.08      
Sep 13 17:56 W 13 10 Clear CLR 91 71     52%   98 30.09 30.08      
Sep 13 16:56 W 16 10 Clear CLR 92 71     51%   99 30.1 30.08      
Sep 13 15:56 W 14 10 Partly Cloudy SCT050 93 72     51%   101 30.1 30.09      
Sep 13 14:56 SW 11 10 Mostly Clear FEW047 93 72     51%   101 30.11 30.1      
Sep 13 13:56 SW 14 10 Clear CLR 92 72     52%   100 30.13 30.12      
Sep 13 12:56 SSW 11 8 Clear CLR 90 72     56%   97 30.14 30.13      
Sep 13 11:56 WSW 14 10 Clear CLR 87 72     61%   94 30.15 30.14      
Sep 13 10:56 WSW 9 10 Clear CLR 85 72     65%   91 30.15 30.14      
Sep 13 09:56 SSW 6 10 Clear CLR 81 72     74%   85 30.14 30.12      
Sep 13 08:56 S 3 10 Clear CLR 76 71     85%   77 30.14 30.12      
Sep 13 07:56   10 Clear CLR 69 68     96%     30.12 30.1      
Sep 13 06:56 SE 7 10 Clear CLR 70 69     97%     30.11 30.1      
Sep 13 05:56 S 3 10 Clear CLR 72 70     93%   73 30.1 30.09      
Sep 13 04:56 Calm 10 Clear CLR 72 70     93%   73 30.11 30.09      
Sep 13 03:56 SSE 3 9 Clear CLR 70 69     97%     30.11 30.09      
Sep 13 02:56 Calm 9 Clear CLR 71 70     96%   72 30.12 30.1      
Sep 13 01:56 Calm 6 Fog/Mist CLR 71 70     96%   72 30.12 30.1      
Sep 13 00:56 Calm 10 Clear CLR 73 72     96%   75 30.12 30.1      
Sep 12 23:56 Calm 10 Clear CLR 75 72     90%   76 30.12 30.1      
Sep 12 22:56 Calm 10 Clear CLR 75 72     90%   76 30.11 30.09      
Sep 12 21:56 Calm 10 Clear CLR 77 72     84%   78 30.1 30.09      
Sep 12 20:56 Calm 10 Clear CLR 79 72     79%   82 30.09 30.07      
Sep 12 19:56 SE 3 10 Clear CLR 84 73     70%   90 30.08 30.07      
Sep 12 18:56 SSW 5 10 Clear CLR 90 71     54%   96 30.09 30.07      
Sep 12 17:56 SSW 6 10 Mostly Clear FEW055 91 70     50%   97 30.09 30.07      
May 15 00:23 WSW 11 10 Mostly Clear FEW075 77 64     65%   77 29.92        
May 13 12:56 W 13 10 Mostly Cloudy BKN048 86 67     53%   89 30.04 30.03      
May 13 05:56 SSW 7 10 Clear CLR 67 62     84%     30.03 30.01      
May 12 16:56 W 8 10 Clear   87 65     48%   89 30.03 30.01      
May 12 09:56 SW 14 10 Clear CLR 77 63     62%   77 30.09 30.07      
May 12 01:56 S 11 10 Clear CLR 72 60     66%   72 30 29.98      
May 11 23:56 S 6 10 Clear CLR 73 59     61%   73 29.99 29.97      
Jun 12 08:56 S 10 10 Partly Cloudy FEW050 SCT060 SCT090 76 69     79%   77 30.12 30.1      
Jun 12 05:56 SSE 6 10 Mostly Clear FEW070 69 64     84%     30.09 30.07      
Jun 11 23:56 S 7 10 Clear CLR 76 65     69%   76 30.05 30.03      
Jun 11 10:56 SSW 10 10 Clear CLR 81 65     58%   83 30.12 30.11      
Jun 11 05:56 SSE 5 7 Clear CLR 64 59     84%     30.07 30.06      
Jun 10 13:56 S 13 10 Clear CLR 83 58     43%   83 30.03 30.01      
Jun 09 21:56 S 6 10 Clear CLR 72 55     55%   71 29.93 29.92      
Jun 09 16:56 W 8 10 Clear   83 52     34%   82 29.92 29.91      
Jun 09 09:56 SSW 11 10 Clear CLR 71 57     61%   71 29.98 29.96      
Jun 08 17:56 E 7 10 Mostly Clear FEW060 76 54     47%   75 29.93 29.92      
Jun 07 17:56 ENE 10 10 Cloudy OVC065 69 54     59%     30 29.99